Regional Weather Roundup
Issued by NWS

Home | Current Version | Previous Version | Graphics & Text | Print | Product List | Glossary On
Versions: 1 2 3 4 5 6 7 8 9 10 11 12 13 14 15 16 17 18 19 20 21 22 23 24 25 26 27 28 29 30 31 32 33 34 35 36 37 38 39 40 41 42 43 44 45 46 47 48 49 50
000
ASUS43 KDMX 272001
RWRIA

WEATHER ROUNDUP FOR IOWA
NATIONAL WEATHER SERVICE DES MOINES IA
300 PM CDT SAT MAY 27 2017

NOTE: "FAIR" INDICATES FEW OR NO CLOUDS BELOW 12,000 FEET WITH NO
SIGNIFICANT WEATHER AND/OR OBSTRUCTIONS TO VISIBILITY.

* - THESE STATIONS ARE NOT NWS STATIONS...THUS NOT UNDER NWS
QUALITY CONTROL.  THEY ALSO DO NOT REPORT WEATHER SUCH
AS PRECIPITATION OR FOG.

IAZ001>003-012>014-020>022-031>034-043>046-272100-
   NORTHWEST IOWA

CITY           SKY/WX    TMP DP  RH WIND       PRES   REMARKS
CARROLL *      CLOUDY    66  55  68 NE22      29.85F
CHEROKEE *     CLOUDY    70  52  52 N9        29.89F
DENISON *      CLOUDY    68  52  56 NE13      29.87F
LE MARS *      CLOUDY    68  54  60 N15       29.92F
ORANGE CITY *  MOSUNNY   64  55  72 N10       29.93F
SHELDON *      CLOUDY    63  54  72 NW10      29.93F
SIOUX CITY     SUNNY     73  51  46 N14       29.89F
SPENCER        CLOUDY    64  56  75 NW8       29.93F
STORM LAKE *   CLOUDY    70  48  46 N17       29.89F
$$

IAZ055>058-069>071-079>083-090>094-272100-
   SOUTHWEST IOWA

CITY           SKY/WX    TMP DP  RH WIND       PRES   REMARKS
ATLANTIC *     CLOUDY    64  55  72 NE14G25   29.85F
AUDUBON *      CLOUDY    64  55  72 NE17      29.87F
CLARINDA *     CLOUDY    70  63  78 NE9       29.86R
COUNCIL BLFS *   N/A     68  61  77 NE16      29.85F
CRESTON *      CLOUDY    66  63  88 NE12      29.86R
HARLAN  *      CLOUDY    68  55  64 E18       29.88F
LAMONI         CLOUDY    69  60  73 VRB5      29.84R
RED OAK *      MOSUNNY   70  59  68 NE16G22   29.84S
SHENANDOAH *   CLOUDY    70  61  73 NE10G18   29.84R
$$

IAZ047>049-059>061-072>074-084-272100-
   CENTRAL IOWA

CITY           SKY/WX    TMP DP  RH WIND       PRES   REMARKS
AMES           LGT RAIN  61  58  90 N12       29.85F
ANKENY *       CLOUDY    61  57  88 N13G20    29.86S
BOONE *        CLOUDY    63  59  88 NE20G26   29.84F
CHARITON *     CLOUDY    70  64  83 N16       29.82S
DES MOINES     CLOUDY    64  60  87 NE9       29.85R
GRINNELL*      CLOUDY    63  61  93 N10       29.84F
KNOXVILLE *    CLOUDY    64  61  88 N15       29.82S
MARSHALLTOWN   LGT RAIN  61  58  90 N17       29.85F
NEWTON *       CLOUDY    63  61  94 N14       29.84R
PERRY *        CLOUDY    62  56  82 N12       29.86F
$$

IAZ004>006-015-016-023>025-035-036-272100-
   NORTH CENTRAL IOWA

CITY           SKY/WX    TMP DP  RH WIND       PRES   REMARKS
ALGONA *       CLOUDY    68  45  42 N9        29.91F
CLARION *      CLOUDY    63  54  72 N10       29.89F
ESTHERVILLE    CLOUDY    63  52  67 NW9       29.92F
FORT DODGE *   CLOUDY    63  55  77 E13       29.89F
MASON CITY     LGT RAIN  67  48  50 NW5       29.93F
FOREST CITY *  LGT RAIN  70  41  35 CALM      29.92F
WEBSTER CITY * DRIZZLE   63  59  88 NE8       29.85F
$$

IAZ007>011-017>019-026>030-037>042-050>054-066-272100-
   NORTHEAST IOWA

CITY           SKY/WX    TMP DP  RH WIND       PRES   REMARKS
CEDAR RAPIDS   PTSUNNY   72  64  76 E6        29.83F
CHARLES CITY * CLOUDY    72  48  43 NW5       29.90F
CLINTON *      MOSUNNY   73  63  70 N3        29.87F
DUBUQUE        CLOUDY    73  61  65 NE3       29.88F
MONTICELLO *   CLOUDY    72  61  68 CALM      29.86F
OELWEIN *      CLOUDY    73  54  49 VRB5      29.87F
WATERLOO       CLOUDY    70  52  52 NW10      29.85F
$$

IAZ064-065-067-068-078-272100-
   EAST CENTRAL IOWA

CITY           SKY/WX    TMP DP  RH WIND       PRES   REMARKS
DAVENPORT      CLOUDY    74  61  63 NE7       29.85F
IOWA CITY      CLOUDY    74  62  66 NE7       29.84F
MT. PLEASANT * CLOUDY    74  61  63 SE13      29.85S
MUSCATINE *    CLOUDY    73  61  64 E6        29.84F
QUAD CITIES    CLOUDY    77  61  57 MISG      29.84F
$$

IAZ062-063-075>077-085>089-095>099-272100-
   SOUTHEAST IOWA

CITY           SKY/WX    TMP DP  RH WIND       PRES   REMARKS
BURLINGTON     CLOUDY    72  65  78 S6        29.86F
FAIRFIELD *    MOSUNNY   73  63  68 SE9       29.84R
FORT MADISON * CLOUDY    73  66  78 SE8       29.86F
KEOKUK *       PTSUNNY   73  64  73 E7        29.84F
OSKALOOSA *    PTSUNNY   73  62  67 SE9       29.83R
OTTUMWA        MOSUNNY   74  63  68 SE9       29.81F
WASHINGTON *   CLOUDY    73  64  73 SE9G16    29.86R
$$

ABBREVIATIONS USED IN REMARKS
   TC - TEMPERATURES IN CELSIUS
  WCI - WIND CHILL INDEX
   HX - HEAT INDEX
  VSB - VISIBILITY
$$




USA.gov is the U.S. government's official web portal to all federal, state and local government web resources and services.